Regional Weather Roundup
Issued by NWS

Home | Current Version | Previous Version | Graphics & Text | Print | Product List | Glossary On
Versions: 1 2 3 4 5 6 7 8 9 10 11 12 13 14 15 16 17 18 19 20 21 22 23 24 25 26 27 28 29 30 31 32 33 34 35 36 37 38 39 40 41 42 43 44 45 46 47 48 49 50
000
ASUS43 KMPX 272001
RWRMN
WEATHER ROUNDUP FOR MINNESOTA
NATIONAL WEATHER SERVICE TWIN CITIES/CHANHASSEN MN
300 PM CDT THU APR 27 2017


NOTE: "FAIR" INDICATES FEW OR NO CLOUDS BELOW 12,000 FEET WITH NO
SIGNIFICANT WEATHER AND/OR OBSTRUCTIONS TO VISIBILITY. N/A MEANS
CURRENT SKY AND/OR WEATHER CONDITIONS ARE NOT AVAILABLE.

MNZ060>063-068>070-272100-
   Twin Cities Metro

CITY           SKY/WX    TMP DP  RH WIND       PRES   REMARKS
TWIN CITIES    CLOUDY    34  25  69 W15       29.61R WCI  24
ST PAUL        CLOUDY    34  26  72 NW12      29.62R WCI  25
CRYSTAL        CLOUDY    34  23  64 NW14      29.60R WCI  25
BLAINE         CLOUDY    34  27  75 W10       29.60R WCI  26
LAKEVILLE      CLOUDY    34  28  80 W12G21    29.61R WCI  25
EDEN PRAIRIE   CLOUDY    35  24  64 NW15      29.61R WCI  25
SOUTH ST PAUL  CLOUDY    34  26  72 W10G23    29.61R WCI  26
LAKE ELMO      CLOUDY    34  28  80 NW10      29.61R WCI  26
$$
MNZ001>005-007-008-013>017-022>024-027-028-272100-
   Northwest Minnesota

CITY           SKY/WX    TMP DP  RH WIND       PRES   REMARKS
BEMIDJI        CLOUDY    28  22  78 NW13G18   29.60S WCI  17
HALLOCK        CLOUDY    43  30  61 NE12G18   29.65F
ROSEAU         LGT SNOW  30  25  80 N13       29.65S WCI  20
WARROAD        CLOUDY    28  25  86 N12       29.65S WCI  18
THIEF RVR FALL CLOUDY    31  24  75 N13       29.66F WCI  21
CROOKSTON      CLOUDY    36  27  69 N9        29.68S
FOSSTON        CLOUDY    30  21  69 N17       29.65S WCI  18
DETROIT LAKES  CLOUDY    30  27  86 NW14      29.65S WCI  20
MOORHEAD       CLOUDY    34  27  75 N17       29.70S WCI  23
PARK RAPIDS    CLOUDY    30  19  63 NW16      29.60R WCI  19
MAHNOMEN       CLOUDY    30  23  75 N5        29.64S WCI  25
$$
MNZ006-009>011-018-025>026-272100-
   North Central Minnesota

CITY           SKY/WX    TMP DP  RH WIND       PRES   REMARKS
BAUDETTE       CLOUDY    28  19  69 N18G24    29.60S WCI  15
FLAG ISLAND    CLOUDY    27  23  86 N18       29.63F WCI  13
INTL FALLS     CLOUDY    28  16  60 N14       29.56S WCI  17
WASKISH        CLOUDY    28  21  74 NW13      29.60S WCI  18
BIG FORK       CLOUDY    28  18  64 N7        29.56S WCI  21
LONGVILLE      CLOUDY    28  21  74 W8        29.58R WCI  20
GRAND RAPIDS   CLOUDY    28  20  71 NW13G23   29.57R WCI  17
CRANE LAKE     CLOUDY    27  18  69 NW10G17   29.56S WCI  17
ORR            CLOUDY    27  16  63 NW13      29.51S WCI  16
COOK           CLOUDY    27  16  63 NW9G16    29.54R WCI  17
WALKER         CLOUDY    28  20  70 NW15G21   29.59S WCI  16
$$
MNZ012-019>021-037-272100-
   Northeast Minnesota

CITY           SKY/WX    TMP DP  RH WIND       PRES   REMARKS
DULUTH         CLOUDY    28  20  71 NW16G24   29.51R WCI  16
ELY            CLOUDY    25  16  68 NW12G18   29.50R WCI  14
HIBBING        CLOUDY    27  18  69 NW17      29.53R WCI  14
EVELETH        CLOUDY    28  17  64 NW9G20    29.53R WCI  19
DULUTH HARBOR  CLOUDY    32  23  69 NW16      29.56R WCI  21
TWO HARBORS    CLOUDY    30  21  69 W3G16     29.50R
SILVER BAY     CLOUDY    28  21  74 NW6       29.48R WCI  22
G MARAIS ARPRT LGT SNOW  21  16  79 CALM      29.40R
$$
MNZ029>031-032-039>041-046>048-054>057-064-272100-
   West Central Minnesota

CITY           SKY/WX    TMP DP  RH WIND       PRES   REMARKS
FERGUS FALLS   CLOUDY    30  23  74 N20       29.67S WCI  18
WHEATON        CLOUDY    36  25  64 NW17      29.71S
MORRIS         CLOUDY    34  25  69 NW21      29.66S WCI  22
ALEXANDRIA     CLOUDY    31  22  69 NW17G23   29.63S WCI  19
ELBOW LAKE     CLOUDY    31  24  75 NW17      29.67S WCI  20
WADENA         CLOUDY    28  23  80 NW12      29.61S WCI  18
GLENWOOD       CLOUDY    30  23  74 NW16      29.64R WCI  19
APPLETON       CLOUDY    36  25  64 NW17G23   29.68S
BENSON         CLOUDY    36  21  55 N17G23    29.68R
ORTONVILLE     CLOUDY    36  25  64 NW14G24   29.69R
MADISON        CLOUDY    37  27  65 NW15G24   29.69S
WILLMAR        CLOUDY    34  27  75 NW18G24   29.66R WCI  23
$$
MNZ033>034-036-042>043-049>051-058-059-272100-
   Central Minnesota

CITY           SKY/WX    TMP DP  RH WIND       PRES   REMARKS
ST CLOUD       CLOUDY    31  22  69 NW14      29.62R WCI  21
SAUK CENTRE    CLOUDY    31  22  70 NW15G21   29.63R WCI  20
PAYNESVILLE    CLOUDY    31  26  81 NW9G17    29.63S WCI  23
AITKIN         CLOUDY    30  19  64 NW8       29.56S WCI  23
PINE RIVER     CLOUDY    28  21  74 NW9       29.63S WCI  20
BRAINERD       CLOUDY    28  21  75 NW14      29.59S WCI  17
STAPLES        CLOUDY    27  21  80 NW10      29.61S WCI  17
LONG PRAIRIE   CLOUDY    30  23  74 NW14      29.62S WCI  20
LITTLE FALLS   CLOUDY    30  21  69 NW12G17   29.61S WCI  21
LITCHFIELD     CLOUDY    34  27  75 NW12      29.63R WCI  25
BUFFALO        CLOUDY    32  24  71 W12G17    29.63R WCI  23
MAPLE LAKE     CLOUDY    32  27  79 W13       29.63R WCI  23
HUTCHINSON     CLOUDY    33  29  83 W14G23    29.64R WCI  24
$$
MNZ037-044-045-052-053-272100-
   East Central Minnesota

CITY           SKY/WX    TMP DP  RH WIND       PRES   REMARKS
PRINCETON      CLOUDY    32  25  74 W13G18    29.61R WCI  22
MORA           CLOUDY    32  25  74 NW10G18   29.60R WCI  24
CAMBRIDGE      CLOUDY    34  23  64 NW8G20    29.58R WCI  27
RUSH CITY      CLOUDY    31  23  73 W9G18     29.59R WCI  23
MOOSE LAKE     CLOUDY    30  21  69 N8G18     29.55R WCI  23
HINCKLEY       CLOUDY    32  25  74 NW10      29.58R WCI  24
CLOQUET        CLOUDY    28  19  69 NW10G16   29.53R WCI  19
MCGREGOR       CLOUDY    30  23  74 NW12      29.57R WCI  21
$$
MNZ071>073-080-081-089-090-097-098-272100-
   Southwest Minnesota

CITY           SKY/WX    TMP DP  RH WIND       PRES   REMARKS
MONTEVIDEO     CLOUDY    34  25  69 N17G24    29.68R WCI  23
GRANITE FALLS  CLOUDY    37  28  70 NW20      29.70R
CANBY          CLOUDY    38  28  69 W15G23    29.70S
MARSHALL       CLOUDY    36  27  69 NW20      29.68R
REDWOOD FALLS  CLOUDY    36  24  62 NW13G24   29.67R
OLIVIA         CLOUDY    34  28  80 NW16G28   29.65R WCI  23
PIPESTONE      CLOUDY    39  27  60 NW17G23   29.67R
WINDOM         SUNNY     36  28  75 NW17G24   29.67R
WORTHINGTON    CLOUDY    37  28  70 NW18      29.68R
JACKSON        CLOUDY    36  28  75 NW13      29.67R
TRACY          CLOUDY    37  29  75 NW20G25   29.68S
SLAYTON        CLOUDY    36  28  73 NW20      29.67S
$$
MNZ065>067-074>077-082>085-091>093-272100-
   South Central Minnesota

CITY           SKY/WX    TMP DP  RH WIND       PRES   REMARKS
MANKATO        CLOUDY    34  27  75 W17       29.65R WCI  23
NEW ULM        CLOUDY    34  27  75 W20       29.65R WCI  22
ST JAMES       CLOUDY    34  28  80 W21G29    29.68R WCI  22
FAIRMONT       CLOUDY    36  26  67 NW18      29.67R
GLENCOE        CLOUDY    35  29  79 W13       29.63R WCI  27
FARIBAULT      CLOUDY    36  30  80 W15G21    29.63R
OWATONNA       CLOUDY    36  28  75 W17G25    29.63R
WASECA         CLOUDY    34  32  93 W17G25    29.65R WCI  23
ALBERT LEA     CLOUDY    36  27  69 W13G20    29.63R
$$
MNZ078>079-086>088-094>096-272100-
   Southeast Minnesota

CITY           SKY/WX    TMP DP  RH WIND       PRES   REMARKS
ROCHESTER      CLOUDY    35  31  85 W17       29.60R WCI  25
RED WING       CLOUDY    37  25  60 W10G21    29.60R
STANTON        CLOUDY    36  29  75 W15       29.61R
DODGE CENTER   CLOUDY    34  28  80 W20       29.61R WCI  22
WINONA         CLOUDY    37  32  81 W10       29.60R
AUSTIN         CLOUDY    36  28  75 W16G23    29.63R
PRESTON        CLOUDY    35  30  81 W14G21    29.61R WCI  26
$$
ABBREVIATIONS USED IN REMARKS
   TC - TEMPERATURES IN CELSIUS
  WCI - WIND CHILL INDEX
   HX - HEAT INDEX
  VSB - VISIBILITY
$$




USA.gov is the U.S. government's official web portal to all federal, state and local government web resources and services.